AirNav   Air Wisconsin pilot careers
 
 393 users online  

7OH8 Curtis Airport
Chardon, Ohio, USA

GOING TO CHARDON?


FAA INFORMATION EFFECTIVE 01 FEBRUARY 2018

Location

FAA Identifier: 7OH8
Lat/Long: 41-38-16.0000N / 081-06-05.0000W
41-38.266667N / 081-06.083333W
41.6377778 / -81.1013889
(estimated)
Elevation: 1250 ft. / 381 m (estimated)
Variation: 07W (1985)
From city: 6 miles NE of CHARDON, OH
Time zone: UTC -5 (UTC -4 during Daylight Saving Time)
Zip code: 44024

Airport Operations

Airport use: Private use. Permission required prior to landing
Activation date: 12/1970
Control tower: no
ARTCC: CLEVELAND CENTER
FSS: CLEVELAND FLIGHT SERVICE STATION
Attendance: CONTINUOUS
Wind indicator: yes
Segmented circle: no

Airport Communications

WX AWOS-3PT at LNN (13 nm W): 119.225 (440-942-0809)
WX ASOS at HZY (20 nm NE): 118.325 (440-576-6907)

Nearby radio navigation aids

VOR radial/distance  VOR name  Freq  Var
CXRr026/7.8CHARDON VOR/DME112.7005W
JFNr250/17.4JEFFERSON VOR/DME115.2005W
YNGr319/26.6YOUNGSTOWN VORTAC109.0005W
ACOr012/32.1AKRON VOR/DME114.4004W

 
NDB name  Hdg/Dist  Freq  Var  ID
LAKELAND110/12.726308WLQL .-.. --.- .-..

Airport Services

Airframe service: NONE
Powerplant service: NONE

Runway Information

Runway N/S

Dimensions: 2100 x 40 ft. / 640 x 12 m
Surface: turf
RUNWAY N  RUNWAY S
Traffic pattern: rightleft
Obstructions: 35 ft. plinetrees

Airport Ownership and Management from official FAA records

Ownership: Privately-owned
Owner: ROBERT E. CURTIS
15215 ROCK CREEK ROAD
CHARDON, OH 44024
Phone 216-298-1416
Manager: ROBERT E. CURTIS
15215 ROCK CREEK ROAD
CHARDON, OH 44024
Phone 216-298-1416

Airport Operational Statistics

Aircraft based on the field: 4
Single engine airplanes: 4
    

Instrument Procedures

There are no published instrument procedures at 7OH8.

Some nearby airports with instrument procedures:

2G1 - Concord Airpark (5 nm W)
7G8 - Geauga County Airport (11 nm S)
KLNN - Willoughby Lost Nation Municipal Airport (13 nm W)
KCGF - Cuyahoga County Airport (18 nm W)
KHZY - Northeast Ohio Regional Airport (20 nm NE)
 
Loc | Ops | Rwys | IFR | FBO | Links
Com | Nav | Svcs | Stats | Notes

AirNav Hotels Sweepstakes
 
Area around 7OH8 (Curtis Airport)
 
Road maps at: MapQuest Bing Google
 
Aerial photo
No photo
 
Sectional chart

 
Airport distance calculator
Flying to Curtis Airport? Find the distance to fly.

From to 7OH8

Sunrise and sunset
Times for 24-Feb-2018
 Local
(UTC-5)
 Zulu
(UTC)
Morning civil twilight06:4011:40
Sunrise07:0812:08
Sunset18:0723:07
Evening civil twilight18:3623:36

Current date and time
Zulu (UTC)  24-Feb-2018 08:52:40
Local (UTC-5)  24-Feb-2018 03:52:40
 
METAR
KLNN 
12nm W 
240835Z AUTO 36006KT 10SM OVC019 04/03 A3022 RMK AO1 T00360028
KCGF 
17nm W 
240345Z 28006KT 10SM OVC008 08/07 A3021
KHZY 
20nm NE 
240753Z AUTO 34009KT 10SM FEW010 OVC017 06/04 A3021 RMK AO2 SLP232 T00610044
TAF
NOTAMs
Click for the latest NOTAMs
NOTAMs are issued by the DoD/FAA and will open in a separate window not controlled by AirNav.

 

 
 

Would you like to see your business listed on this page?

 If your business provides an interesting product or service to pilots, flight crews, aircraft, or users of the Curtis Airport, you should consider listing it here.  To start the listing process, click on the button below
 
Add a business
 

Other Pages about Curtis Airport

Update a link
 
Copyright © AirNav, LLC. All rights reserved. Privacy Policy  Contact